Luverne, MN

12:17 PM CDT on April 26, 2017 (GMT -0500)
Luverne

Weather History for KLYV - August, 2013

Change the Weather History Date:

Wednesday, August 28, 2013

  Actual Average (KPQN) Record (KPQN)
Temperature  
Mean Temperature 83 °F -  
Max Temperature 93 °F 77 °F 93 °F (2012)
Min Temperature 73 °F 57 °F 51 °F (2005)
Cooling Degree Days 18    
Growing Degree Days 33 (Base 50)    
Moisture  
Dew Point 74 °F    
Average Humidity 77    
Maximum Humidity 94    
Minimum Humidity 52    
Precipitation  
Precipitation 0.00 in - - ()
Sea Level Pressure  
Sea Level Pressure 29.97 in    
Wind  
Wind Speed 2 mph (SE)    
Max Wind Speed 12 mph    
Max Gust Speed 18 mph    
Visibility 8 miles    
Events      
Averages and records for this station are not official NWS values.
T = Trace of Precipitation, MM = Missing Value Source: NWS Daily Summary

Daily Weather History Graph

Daily Weather History Graph

Search for Another Location

Airport or City:

Trip Planner

Search our weather history database for the weather conditions in past years. The results will help you decide how hot, cold, wet, or windy it might be!

Date:

Astronomy

Aug. 28, 2013 Rise Set
Actual Time 6:44 AM CDT 8:06 PM CDT
Civil Twilight 6:14 AM CDT 8:36 PM CDT
Nautical Twilight 5:38 AM CDT 9:12 PM CDT
Astronomical Twilight 5:00 AM CDT 9:50 PM CDT
Moon No Moon Rise 2:50 PM CDT (8/28)
Length of Visible Light 14h 21m
Length of Day
13h 22m
Waning Gibbous, 47% of the Moon is Illuminated
Aug 28
Waning Gibbous
Sep 5
New
Sep 12
First Quarter
Sep 19
Full
Sep 26
Last Quarter

Hourly Weather History & Observations

Time (CDT) Temp. Heat Index Dew Point Humidity Pressure Visibility Wind Dir Wind Speed Gust Speed Precip Events Conditions
12:19 AM 77.0 °F - 73.4 °F 89% 29.95 in 7.0 mi Calm Calm - N/A   Scattered Clouds
12:33 AM 77.0 °F - 73.4 °F 89% 29.95 in 7.0 mi Calm Calm - N/A   Scattered Clouds
12:53 AM 77.0 °F - 73.4 °F 89% 29.95 in 7.0 mi Calm Calm - N/A   Scattered Clouds
1:13 AM 77.0 °F - 73.4 °F 89% 29.95 in 7.0 mi Calm Calm - N/A   Clear
1:53 AM 77.0 °F - 73.4 °F 89% 29.94 in 4.0 mi Calm Calm - N/A   Clear
2:13 AM 77.0 °F - 73.4 °F 89% 29.94 in 5.0 mi Calm Calm - N/A   Clear
2:33 AM 75.2 °F - 71.6 °F 89% 29.94 in 7.0 mi NE 3.5 mph - N/A   Clear
2:53 AM 77.0 °F - 73.4 °F 89% 29.93 in 5.0 mi NE 3.5 mph - N/A   Clear
3:13 AM 77.0 °F - 73.4 °F 89% 29.93 in 7.0 mi Calm Calm - N/A   Clear
3:33 AM 77.0 °F - 73.4 °F 89% 29.93 in 7.0 mi Calm Calm - N/A   Clear
3:53 AM 77.0 °F - 71.6 °F 83% 29.94 in 5.0 mi Calm Calm - N/A   Clear
4:13 AM 73.4 °F - 71.6 °F 94% 29.94 in 4.0 mi Calm Calm - N/A   Clear
4:33 AM 73.4 °F - 71.6 °F 94% 29.94 in 3.0 mi South 3.5 mph - N/A   Clear
4:53 AM 73.4 °F - 71.6 °F 94% 29.94 in 4.0 mi NE 3.5 mph - N/A   Clear
5:13 AM 75.2 °F - 71.6 °F 89% 29.94 in 4.0 mi Calm Calm - N/A   Clear
5:33 AM 75.2 °F - 71.6 °F 89% 29.93 in 4.0 mi Calm Calm - N/A   Clear
5:53 AM 75.2 °F - 71.6 °F 89% 29.94 in 4.0 mi Calm Calm - N/A   Clear
6:13 AM 75.2 °F - 71.6 °F 89% 29.94 in 3.0 mi Calm Calm - N/A   Clear
6:33 AM 75.2 °F - 73.4 °F 94% 29.95 in 3.0 mi Calm Calm - N/A   Clear
6:53 AM 73.4 °F - 71.6 °F 94% 29.96 in 2.5 mi East 3.5 mph - N/A   Clear
7:13 AM 73.4 °F - 71.6 °F 94% 29.96 in 2.0 mi Calm Calm - N/A   Clear
7:33 AM 75.2 °F - 73.4 °F 94% 29.96 in 2.0 mi ESE 3.5 mph - N/A   Clear
7:53 AM 75.2 °F - 71.6 °F 89% 29.96 in 2.5 mi Calm Calm - N/A   Clear
8:13 AM 77.0 °F - 73.4 °F 89% 29.97 in 4.0 mi East 3.5 mph - N/A   Clear
8:33 AM 78.8 °F - 73.4 °F 83% 29.98 in 5.0 mi Calm Calm - N/A   Haze
8:53 AM 78.8 °F - 73.4 °F 83% 29.99 in 7.0 mi East 3.5 mph - N/A   Clear
9:13 AM 80.6 °F 85.4 °F 73.4 °F 79% 29.98 in 7.0 mi East 4.6 mph - N/A   Clear
9:33 AM 80.6 °F 85.4 °F 73.4 °F 79% 29.99 in 10.0 mi Calm Calm - N/A   Scattered Clouds
9:53 AM 82.4 °F 88.2 °F 73.4 °F 74% 29.99 in 10.0 mi ESE 4.6 mph - N/A   Clear
10:13 AM 82.4 °F 88.2 °F 73.4 °F 74% 30.00 in 10.0 mi Calm Calm - N/A   Scattered Clouds
10:33 AM 84.2 °F 90.9 °F 73.4 °F 70% 29.99 in 10.0 mi SSE 5.8 mph - N/A   Scattered Clouds
10:53 AM 84.2 °F 90.9 °F 73.4 °F 70% 30.00 in 10.0 mi SE 3.5 mph - N/A   Clear
11:13 AM 86.0 °F 93.4 °F 73.4 °F 66% 30.00 in 10.0 mi ESE 4.6 mph - N/A   Clear
11:33 AM 87.8 °F 95.6 °F 73.4 °F 62% 30.02 in 10.0 mi East 3.5 mph - N/A   Clear
11:53 AM 87.8 °F 97.6 °F 75.2 °F 66% 30.02 in 10.0 mi Calm Calm - N/A   Clear
12:13 PM 87.8 °F 97.6 °F 75.2 °F 66% 30.02 in 10.0 mi Calm Calm - N/A   Scattered Clouds
12:33 PM 89.6 °F 102.2 °F 77.0 °F 66% 30.02 in 10.0 mi Calm Calm - N/A   Mostly Cloudy
12:53 PM 87.8 °F 99.7 °F 77.0 °F 70% 30.02 in 10.0 mi NE 3.5 mph - N/A   Overcast
1:13 PM 87.8 °F 99.7 °F 77.0 °F 70% 30.02 in 10.0 mi ENE 4.6 mph - N/A   Overcast
1:33 PM 89.6 °F 102.2 °F 77.0 °F 66% 30.01 in 10.0 mi ESE 9.2 mph - N/A   Mostly Cloudy
1:53 PM 91.4 °F 105.1 °F 77.0 °F 63% 29.99 in 10.0 mi East 8.1 mph - N/A   Scattered Clouds
2:13 PM 91.4 °F 102.5 °F 75.2 °F 59% 29.98 in 10.0 mi East 6.9 mph - N/A   Scattered Clouds
2:33 PM 91.4 °F 105.1 °F 77.0 °F 63% 29.99 in 10.0 mi East 9.2 mph - N/A   Scattered Clouds
2:53 PM 93.2 °F 107.2 °F 77.0 °F 59% 29.98 in 10.0 mi SSE 8.1 mph - N/A   Scattered Clouds
3:13 PM 93.2 °F 107.2 °F 77.0 °F 59% 29.97 in 10.0 mi SSE 10.4 mph - N/A   Scattered Clouds
3:33 PM 91.4 °F 102.5 °F 75.2 °F 59% 29.96 in 10.0 mi SSE 11.5 mph 18.4 mph N/A   Clear
3:53 PM 93.2 °F 102.4 °F 73.4 °F 52% 29.97 in 10.0 mi SE 11.5 mph 16.1 mph N/A   Clear
4:13 PM 91.4 °F 102.5 °F 75.2 °F 59% 29.97 in 10.0 mi SSE 9.2 mph 17.3 mph N/A   Clear
4:33 PM 91.4 °F 100.1 °F 73.4 °F 55% 29.98 in 10.0 mi SSE 9.2 mph - N/A   Clear
4:53 PM 91.4 °F 100.1 °F 73.4 °F 55% 29.98 in 10.0 mi South 8.1 mph - N/A   Clear
5:13 PM 91.4 °F 100.1 °F 73.4 °F 55% 29.97 in 10.0 mi South 9.2 mph - N/A   Clear
5:33 PM 91.4 °F 100.1 °F 73.4 °F 55% 29.97 in 10.0 mi SSE 8.1 mph - N/A   Clear
5:53 PM 91.4 °F 100.1 °F 73.4 °F 55% 29.97 in 10.0 mi SSE 6.9 mph - N/A   Clear
6:13 PM 89.6 °F 98.2 °F 73.4 °F 59% 29.97 in 10.0 mi SSE 6.9 mph - N/A   Clear
6:33 PM 89.6 °F 98.2 °F 73.4 °F 59% 29.97 in 10.0 mi South 5.8 mph - N/A   Clear
6:53 PM 87.8 °F 95.6 °F 73.4 °F 62% 29.98 in 10.0 mi SSE 4.6 mph - N/A   Clear
7:13 PM 86.0 °F 93.4 °F 73.4 °F 66% 29.97 in 10.0 mi SSE 3.5 mph - N/A   Clear
7:33 PM 86.0 °F 95.1 °F 75.2 °F 70% 29.98 in 10.0 mi Calm Calm - N/A   Clear
7:53 PM 84.2 °F 92.3 °F 75.2 °F 74% 29.98 in 10.0 mi Calm Calm - N/A   Clear
8:13 PM 82.4 °F 89.5 °F 75.2 °F 79% 29.98 in 10.0 mi SSE 4.6 mph - N/A   Clear
8:33 PM 80.6 °F 86.2 °F 75.2 °F 84% 29.98 in 10.0 mi SSE 4.6 mph - N/A   Clear
8:53 PM 80.6 °F 86.2 °F 75.2 °F 84% 29.98 in 10.0 mi SSE 3.5 mph - N/A   Clear
9:13 PM 78.8 °F - 73.4 °F 83% 29.98 in 10.0 mi Calm Calm - N/A   Clear
9:33 PM 77.0 °F - 73.4 °F 89% 29.98 in 7.0 mi South 3.5 mph - N/A   Clear
9:53 PM 78.8 °F - 73.4 °F 83% 29.99 in 10.0 mi South 3.5 mph - N/A   Clear
10:13 PM 77.0 °F - 73.4 °F 89% 29.99 in 10.0 mi Calm Calm - N/A   Clear
10:33 PM 77.0 °F - 73.4 °F 89% 29.99 in 10.0 mi Calm Calm - N/A   Clear
10:52 PM 77.0 °F - 73.4 °F 89% 29.99 in 7.0 mi Calm Calm - N/A   Clear
11:13 PM 77.0 °F - 71.6 °F 83% 30.00 in 7.0 mi Calm Calm - N/A   Clear
11:33 PM 77.0 °F - 73.4 °F 89% 29.99 in 7.0 mi Calm Calm - N/A   Clear
11:53 PM 75.2 °F - 71.6 °F 89% 30.00 in 5.0 mi Calm Calm - N/A   Clear